Regional Weather Roundup
Issued by NWS

Home | Current Version | Previous Version | Graphics & Text | Print | Product List | Glossary On
Versions: 1 2 3 4 5 6 7 8 9 10 11 12 13 14 15 16 17 18 19 20 21 22 23 24 25 26 27 28 29 30 31 32 33 34 35 36 37 38 39 40 41 42 43 44 45 46 47 48 49 50
000
ASUS44 KMEG 041310
RWRTN
TENNESSEE HOURLY STATE WEATHER ROUNDUP
NATIONAL WEATHER SERVICE MEMPHIS TN
800 AM CDT SAT JUL 04 2015

TNZ002-004-019-021-049-052-054-088>092-041400-
WEST TENNESSEE

CITY           SKY/WX    TMP DP  RH WIND       PRES   REMARKS
MEMPHIS INTL   CLOUDY    74  71  91 SW3       29.98R
NWS MEMPHIS      N/A     73 N/A N/A MISG        N/A
JACKSON        CLOUDY    72  70  93 SW5       29.99R
DYERSBURG        N/A    N/A N/A N/A MISG        N/A
PARIS          CLOUDY    70  68  94 CALM      29.99S
LEXINGTON      CLOUDY    70  70 100 S5        29.98S
$$

TNZ008-025-027-028-033-062-065-066-041400-
NORTH MIDDLE TENNESSEE

CITY           SKY/WX    TMP DP  RH WIND       PRES   REMARKS
NASHVILLE      CLOUDY    73  71  93 CALM      30.00R
CLARKSVILLE    CLOUDY    72  70  93 CALM      29.98R
SMYRNA         CLOUDY    74  70  87 W6        30.00R
COOKEVILLE     CLOUDY    72  70  94 SW5       30.01R
CROSSVILLE     CLOUDY    69  65  86 CALM      30.05R FOG
$$

TNZ061-075-076-078-094-096-097-041400-
SOUTH MIDDLE TENNESSEE

CITY           SKY/WX    TMP DP  RH WIND       PRES   REMARKS
FAYETTEVILLE   CLOUDY    68  66  94 S6        30.02S
TULLAHOMA      CLOUDY    68  66  94 SW8       30.03R
WINCHESTER     CLOUDY    70  68  94 W8        30.03R
MCMINNVILLE    CLOUDY    70  70 100 S3        30.03R
COLUMBIA       CLOUDY    70  70 100 SW8       30.00R
SHELBYVILLE    CLOUDY    72  70  94 SW6         N/A
$$

TNZ017-018-042-046-047-041400-
NORTHEAST TENNESSEE

CITY           SKY/WX    TMP DP  RH WIND       PRES   REMARKS
TRI CITIES     CLOUDY    70  66  87 SW9       30.03R
ELIZABETHTON   CLOUDY    66  64  94 SW6       30.04R
$$

TNZ012-013-036-069-073-074-041400-
CENTRAL EAST TENNESSEE

CITY           SKY/WX    TMP DP  RH WIND       PRES   REMARKS
KNOXVILLE      CLOUDY    70  67  90 SW12      30.01R
OAK RIDGE      CLOUDY    70  68  93 VRB3      30.03R
GATLINBURG     MOSUNNY   70  66  88 CALM      30.01S
MORRISTOWN     MOSUNNY   70  68  94 VRB6      30.03S
$$

TNZ083-085-099-041400-
SOUTHEAST TENNESSEE

CITY           SKY/WX    TMP DP  RH WIND       PRES   REMARKS
CHATTANOOGA    CLOUDY    71  68  90 SE6       30.03R FOG
$$

SKY/WX REPORTED AS FAIR MEANS FEW OR NO CLOUDS BELOW
12 THOUSAND FEET.



USA.gov is the U.S. government's official web portal to all federal, state and local government web resources and services.